TimeEST,TemperatureF,Dew PointF,Humidity,Sea Level PressureIn,VisibilityMPH,Wind Direction,Wind SpeedMPH,Gust SpeedMPH,PrecipitationIn,Events,Conditions,WindDirDegrees,DateUTC
12:54 AM,36.0,21.0,55,29.92,10.0,WNW,8.1,-,N/A,,Overcast,290,2013-01-17 05:54:00
1:54 AM,36.0,21.9,57,29.95,10.0,NW,8.1,-,N/A,,Overcast,310,2013-01-17 06:54:00
2:54 AM,36.0,24.1,62,29.96,10.0,Calm,Calm,-,N/A,,Overcast,0,2013-01-17 07:54:00
3:31 AM,35.6,26.6,70,29.93,10.0,Variable,4.6,-,N/A,,Overcast,0,2013-01-17 08:31:00
3:54 AM,35.1,27.0,72,29.97,10.0,Variable,5.8,-,N/A,,Overcast,0,2013-01-17 08:54:00
4:54 AM,34.0,28.9,82,29.99,10.0,NNW,3.5,-,0.00,Rain,Light Rain,340,2013-01-17 09:54:00
5:54 AM,35.1,27.0,72,30.01,10.0,WNW,10.4,16.1,0.00,,Overcast,300,2013-01-17 10:54:00
6:11 AM,35.6,26.6,70,29.97,10.0,WNW,4.6,-,N/A,,Overcast,300,2013-01-17 11:11:00
6:54 AM,35.1,26.1,70,30.04,10.0,WNW,8.1,-,N/A,,Overcast,300,2013-01-17 11:54:00
7:54 AM,35.1,26.1,70,30.06,10.0,WNW,9.2,-,N/A,,Overcast,300,2013-01-17 12:54:00
8:32 AM,33.8,26.6,75,30.05,10.0,NW,12.7,-,N/A,,Overcast,320,2013-01-17 13:32:00
8:54 AM,30.9,25.0,79,30.12,9.0,NNW,16.1,23.0,0.00,Snow,Light Snow,330,2013-01-17 13:54:00
9:31 AM,28.4,21.2,74,30.10,1.8,NNW,13.8,-,0.00,Snow,Light Snow,330,2013-01-17 14:31:00
9:42 AM,28.4,21.2,74,30.11,2.5,NNW,12.7,-,0.00,Snow,Light Snow,330,2013-01-17 14:42:00
9:50 AM,28.4,21.2,74,30.12,3.0,NNW,12.7,-,0.00,Snow,Light Snow,330,2013-01-17 14:50:00
9:54 AM,27.0,21.0,78,30.17,3.0,NNW,12.7,-,0.00,Snow,Light Snow,330,2013-01-17 14:54:00
10:13 AM,26.6,21.2,80,30.13,2.5,NW,8.1,-,0.00,Snow,Light Snow,310,2013-01-17 15:13:00
10:23 AM,26.6,21.2,80,30.13,3.0,NW,8.1,-,0.00,Snow,Light Snow,310,2013-01-17 15:23:00
10:54 AM,27.0,21.0,78,30.19,9.0,NW,10.4,-,0.00,Snow,Light Snow,310,2013-01-17 15:54:00
11:54 AM,27.0,18.0,69,30.19,10.0,North,6.9,-,0.00,,Overcast,360,2013-01-17 16:54:00
12:54 PM,26.1,18.0,71,30.17,10.0,NW,8.1,-,N/A,,Overcast,310,2013-01-17 17:54:00
1:54 PM,26.1,18.0,71,30.15,8.0,NW,8.1,-,N/A,,Overcast,320,2013-01-17 18:54:00
2:54 PM,25.0,18.0,75,30.15,7.0,NW,8.1,-,0.00,Snow,Light Snow,310,2013-01-17 19:54:00
3:54 PM,24.1,18.0,77,30.16,4.0,NW,8.1,-,0.00,Snow,Light Snow,310,2013-01-17 20:54:00
4:54 PM,23.0,17.1,78,30.17,3.0,NW,9.2,-,0.00,Snow,Light Snow,320,2013-01-17 21:54:00
5:19 PM,21.2,17.6,86,30.13,2.5,NW,11.5,-,0.00,Snow,Light Snow,320,2013-01-17 22:19:00
5:54 PM,21.9,18.0,85,30.20,2.5,NW,8.1,-,0.00,Snow,Light Snow,320,2013-01-17 22:54:00
6:23 PM,21.2,17.6,86,30.15,3.0,NW,5.8,-,0.00,Snow,Light Snow,320,2013-01-17 23:23:00
6:54 PM,21.0,17.1,85,30.20,3.0,NW,3.5,-,0.00,Snow,Light Snow,320,2013-01-17 23:54:00
7:02 PM,21.2,17.6,86,30.16,4.0,Calm,Calm,-,0.00,Snow,Light Snow,0,2013-01-18 00:02:00
7:37 PM,21.2,17.6,86,30.15,3.0,Calm,Calm,-,0.00,Snow,Light Snow,0,2013-01-18 00:37:00
7:54 PM,19.9,17.1,89,30.19,3.0,Calm,Calm,-,0.00,Snow,Light Snow,0,2013-01-18 00:54:00
8:02 PM,19.4,17.6,93,30.13,5.0,Calm,Calm,-,0.00,Snow,Light Snow,0,2013-01-18 01:02:00
8:54 PM,21.0,17.1,85,30.19,10.0,Calm,Calm,-,0.00,,Overcast,0,2013-01-18 01:54:00
9:43 PM,19.4,17.6,93,30.12,2.5,NW,8.1,-,0.00,Snow,Light Snow,320,2013-01-18 02:43:00
9:54 PM,19.9,18.0,92,30.18,1.2,NW,6.9,-,0.00,Snow,Light Snow,320,2013-01-18 02:54:00
10:05 PM,19.4,17.6,93,30.11,3.0,WNW,4.6,-,0.00,Snow,Light Snow,300,2013-01-18 03:05:00
10:54 PM,19.9,17.1,89,30.17,10.0,NW,5.8,-,0.00,,Overcast,310,2013-01-18 03:54:00
11:26 PM,19.4,15.8,86,30.11,1.8,WNW,5.8,-,0.00,Snow,Light Snow,300,2013-01-18 04:26:00
11:46 PM,19.4,15.8,86,30.12,0.8,NW,11.5,-,0.00,Snow,Light Snow,320,2013-01-18 04:46:00
11:54 PM,19.0,16.0,88,30.18,0.8,NW,10.4,-,0.00,Snow,Light Snow,310,2013-01-18 04:54:00